Flight Track Log - Related Links

Times and Time Zones

All times are in EST time to prevent confusion due to time zone crossing. See the N400PU flight status page for this flight to view local times or setup timezone preferences in your user account.

Time Position Orientation Groundspeed Altitude Reporting Facility
EST Latitude Longitude Course Direction KTS km/h meters Rate Location/Type
Tue 14:19:49 40.6967 -89.7525 90° East 224 415 1,128  Level Chicago Center
Tue 14:20:49 40.7550 -89.7883 335° Northwest 243 451 1,676 650 Climbing Chicago Center
Tue 14:21:50 40.8219 -89.7614 17° North 273 505 2,438 686 Climbing Chicago Center
Tue 14:22:49 40.8639 -89.6711 58° Northeast 300 555 3,048 323 Climbing Chicago Center
Tue 14:23:49 40.8558 -89.5475 95° East 339 628 3,078 244 Climbing Chicago Center
Tue 14:24:49 40.8308 -89.4239 105° East 344 637 3,536 442 Climbing Chicago Center
Tue 14:25:00 40.6333 -89.2225 90° East  Level FlightAware Approximate
Tue 14:25:49 40.8058 -89.2897 104° East 356 660 3,962  Level Chicago Center
Tue 14:26:49 40.7786 -89.1442 104° East 380 703 3,962  Level Chicago Center
Tue 14:27:49 40.7511 -89.0019 104° East 392 726 3,962  Level Chicago Center
Tue 14:28:49 40.7236 -88.8622 105° East 397 735 3,962  Level Chicago Center
Tue 14:29:49 40.6958 -88.7392 107° East 392 726 3,962  Level Chicago Center
Tue 14:30:49 40.6700 -88.6025 104° East 392 726 3,962  Level Chicago Center
Tue 14:31:49 40.6397 -88.4581 105° East 397 735 3,962  Level Chicago Center
Tue 14:32:49 40.6136 -88.3189 104° East 397 735 3,962 -213 Level Chicago Center
Tue 14:33:49 40.5828 -88.1689 105° East 392 726 3,536 -305 Descending Chicago Center
Tue 14:34:49 40.5647 -88.0408 100° East 381 705 3,353 -122 Descending Chicago Center
Tue 14:35:49 40.5486 -87.9128 99° East 361 668 3,292 -259 Descending Chicago Center
Tue 14:36:49 40.5347 -87.8011 99° East 333 616 2,835 -442 Descending Chicago Center
Tue 14:37:49 40.5186 -87.6922 101° East 315 583 2,408 -427 Descending Chicago Center
Tue 14:38:49 40.5067 -87.5942 99° East 289 536 1,981 -428 Descending Chicago Center
Tue 14:39:23 40.4953 -87.5369 105° East 279 517 1,737 -387 Descending Chicago Center
Tue 14:39:41 40.4908 -87.5072 101° East 277 513 1,646 -162 Descending Chicago Center
Tue 14:40:42 40.4767 -87.4175 102° East 264 489 1,524 -60 Descending Chicago Center
Tue 14:41:42 40.4669 -87.3331 99° East 221 409 1,524  Level Chicago Center
Tue 14:42:43 40.4553 -87.2625 102° East 210 389 1,524 -45 Level Chicago Center
Tue 14:43:44 40.4433 -87.1864 102° East 208 385 1,433 -136 Descending Chicago Center
Tue 14:44:44 40.4397 -87.1019 93° East 242 447 1,250 -102 Descending Chicago Center
Tue 14:45:49 40.4461 -87.0036 85° East 226 418 1,219 -15 Descending Chicago Center
Tue 14:46:49 40.4508 -86.9325 85° East 216 401 1,219  Level Chicago Center
Tue 14:47:49 40.4536 -86.8669 87° East 184 341 1,219  Level Chicago Center
Tue 14:48:49 40.4564 -86.8039 87° East 178 330 1,219 -112 Level Chicago Center
Tue 14:49:59 40.4606 -86.7219 86° East 188 348 975 -205 Descending Chicago Center
Tue 14:50:54 40.4369 -86.6819 128° Southeast 180 333 792 -101 Descending Chicago Center
Tue 14:51:48 40.3953 -86.6892 188° South 171 317 792  Level Chicago Center
Tue 14:52:49 40.3839 -86.7414 254° West 165 306 792  Level Chicago Center

Login

Don't have an account? Register now (free) for customized features, flight alerts, and more!